Regional Weather Roundup
Issued by NWS

Home | Current Version | Previous Version | Text Only | Print | Product List | Glossary Off
Versions: 1 2 3 4 5 6 7 8 9 10 11 12 13 14 15 16 17 18 19 20 21 22 23 24 25 26 27 28 29 30 31 32 33 34 35 36 37 38 39 40 41 42 43 44 45 46 47 48 49 50

460
ASUS44 KMEG 250800
RWRTN
TENNESSEE HOURLY STATE WEATHER ROUNDUP
NATIONAL WEATHER SERVICE MEMPHIS TN
300 AM CDT MON JUL 25 2016

TNZ002-004-019-021-049-052-054-088>092-250900-
WEST TENNESSEE

CITY           SKY/WX    TMP DP  RH WIND       PRES   REMARKS
MEMPHIS INTL   CLEAR     81  75  82 CALM      29.97S
NWS MEMPHIS      N/A     78 N/A N/A MISG        N/A
JACKSON        CLEAR     75  75 100 CALM      29.99S
DYERSBURG      CLEAR    N/A N/A N/A MISG        N/A
$$

TNZ008-025-027-028-033-062-065-066-250900-
NORTH MIDDLE TENNESSEE

CITY           SKY/WX    TMP DP  RH WIND       PRES   REMARKS
NASHVILLE      MOCLDY    79  73  82 CALM      30.03R
CLARKSVILLE    MOCLDY    77  73  87 CALM      30.01S
CROSSVILLE     CLEAR     71  70  96 CALM      30.11S
$$

TNZ061-075-076-078-094-096-097-250900-
SOUTH MIDDLE TENNESSEE

CITY           SKY/WX    TMP DP  RH WIND       PRES   REMARKS
$$

TNZ017-018-042-046-047-250900-
NORTHEAST TENNESSEE

CITY           SKY/WX    TMP DP  RH WIND       PRES   REMARKS
TRI CITIES     CLEAR     72  70  93 CALM      30.09R
$$

TNZ012-013-036-069-073-074-250900-
CENTRAL EAST TENNESSEE

CITY           SKY/WX    TMP DP  RH WIND       PRES   REMARKS
KNOXVILLE      CLEAR     79  74  84 CALM      30.04R
OAK RIDGE      CLEAR     78  72  81 W3        30.06R
$$

TNZ083-085-099-250900-
SOUTHEAST TENNESSEE

CITY           SKY/WX    TMP DP  RH WIND       PRES   REMARKS
CHATTANOOGA    CLEAR     76  73  91 E3        30.04R
$$

SKY/WX REPORTED AS FAIR MEANS FEW OR NO CLOUDS BELOW
12 THOUSAND FEET.





USA.gov is the U.S. government's official web portal to all federal, state and local government web resources and services.